Regional Weather Roundup
Issued by NWS

Home | Current Version | Previous Version | Graphics & Text | Print | Product List | Glossary On
Versions: 1 2 3 4 5 6 7 8 9 10 11 12 13 14 15 16 17 18 19 20 21 22 23 24 25 26 27 28 29 30 31 32 33 34 35 36 37 38 39 40 41 42 43 44 45 46 47 48 49 50
000
ASUS43 KFSD 300810
RWRSD

WEATHER ROUNDUP FOR SOUTH DAKOTA
NATIONAL WEATHER SERVICE SIOUX FALLS SD
300 AM CDT TUE SEP 30 2014

NOTE: "FAIR" INDICATES FEW OR NO CLOUDS BELOW 12,000 FEET WITH NO
SIGNIFICANT WEATHER AND/OR OBSTRUCTIONS TO VISIBILITY.


SDZ001>005-009-010-012>017-300900-
NORTHWEST AND NORTH CENTRAL SOUTH DAKOTA

CITY           SKY/WX    TMP DP  RH WIND       PRES   REMARKS
BUFFALO          N/A     53  52  96 E12       29.70F
FAITH            N/A     53  53 100 NE10      29.74F
MOBRIDGE       MOCLDY    56  51  84 E21G30    29.79F
$$

SDZ012>016-024>037-041>051-057-063-072>074-300900-
SOUTHWEST AND SOUTH CENTRAL SOUTH DAKOTA

CITY           SKY/WX    TMP DP  RH WIND       PRES   REMARKS
RAPID CTY ARPT LGT RAIN  53  52  96 N12       29.68F
PIERRE         CLOUDY    60  56  86 SE22G32   29.74F
CUSTER         RAIN      49  47  93 NE15G22   29.68F FOG
ELLSWORTH AFB  LGT RAIN  54  54 100 W3        29.69
PHILIP         CLOUDY    62  59  90 SE20G26   29.66F
PINE RIDGE     CLOUDY    57  54  89 SE13      29.61F
WINNER         CLOUDY    65  59  81 SE25G32   29.75F
$$

SDZ004>011-016>023-039-040-300900-
NORTHEAST SOUTH DAKOTA

CITY           SKY/WX    TMP DP  RH WIND       PRES   REMARKS
ABERDEEN       CLOUDY    53  48  83 E7        29.92F
WATERTOWN      CLOUDY    49  45  86 SE10      29.96F
SISSETON         N/A     47  45  93 SE13      29.99F
$$

SDZ017-020-022-023-036>040-048>070-300900-
SOUTHEAST SOUTH DAKOTA

CITY           SKY/WX    TMP DP  RH WIND       PRES   REMARKS
SIOUX FALLS    PTCLDY    53  49  86 E14       29.95F
HURON          MOCLDY    54  49  83 SE15      29.88F
CHAMBERLAIN    CLOUDY    59  57  93 SE17G26   29.80F
MITCHELL       MOCLDY    56  52  86 SE16      29.89F
YANKTON        CLOUDY    59  55  88 E14G20    29.91F
$$

ABBREVIATIONS USED IN REMARKS
   TC - TEMPERATURE IN CELSIUS
  WCI - WIND CHILL INDEX
   HX - HEAT INDEX
  VSB - VISIBILITY




USA.gov is the U.S. government's official web portal to all federal, state and local government web resources and services.